TimePST,TemperatureF,Dew PointF,Humidity,Sea Level PressureIn,VisibilityMPH,Wind Direction,Wind SpeedMPH,Gust SpeedMPH,PrecipitationIn,Events,Conditions,WindDirDegrees,DateUTC
12:19 AM,15.8,10.4,79,29.90,10.0,WNW,8.1,-,N/A,,Mostly Cloudy,290,2013-01-28 08:19:00
12:53 AM,10.0,7.0,87,30.02,10.0,NW,6.9,-,N/A,,Scattered Clouds,310,2013-01-28 08:53:00
1:53 AM,9.0,5.0,84,30.03,10.0,WNW,11.5,-,N/A,,Partly Cloudy,290,2013-01-28 09:53:00
2:53 AM,6.1,1.9,83,30.05,10.0,WNW,8.1,-,N/A,,Clear,300,2013-01-28 10:53:00
3:53 AM,-7.6,-9.4,92,29.90,10.0,Calm,Calm,-,N/A,,Clear,0,2013-01-28 11:53:00
4:53 AM,-9.9,-13.0,86,30.13,10.0,SSW,6.9,-,N/A,,Clear,200,2013-01-28 12:53:00
5:53 AM,-8.0,-11.0,86,30.13,10.0,South,8.1,-,N/A,,Clear,170,2013-01-28 13:53:00
6:53 AM,-9.9,-13.0,86,30.15,10.0,South,9.2,-,N/A,,Clear,180,2013-01-28 14:53:00
7:53 AM,-4.0,-7.1,87,30.14,10.0,South,10.4,-,N/A,,Clear,170,2013-01-28 15:53:00
8:53 AM,3.9,1.9,91,30.12,10.0,South,5.8,-,N/A,,Clear,190,2013-01-28 16:53:00
9:53 AM,9.0,6.1,88,30.12,10.0,Calm,Calm,-,N/A,,Clear,0,2013-01-28 17:53:00
10:53 AM,17.1,7.0,65,30.09,10.0,Calm,Calm,-,N/A,,Clear,0,2013-01-28 18:53:00
11:53 AM,21.9,10.0,60,30.09,10.0,North,3.5,-,N/A,,Clear,10,2013-01-28 19:53:00
12:53 PM,23.0,9.0,55,30.09,10.0,NNW,4.6,-,N/A,,Clear,340,2013-01-28 20:53:00
1:53 PM,21.2,8.6,58,29.96,10.0,NNW,3.5,-,N/A,,Mostly Cloudy,340,2013-01-28 21:53:00
2:53 PM,24.1,9.0,53,30.12,10.0,North,5.8,-,N/A,,Partly Cloudy,360,2013-01-28 22:53:00
3:53 PM,21.0,9.0,60,30.19,10.0,NNW,6.9,-,N/A,,Mostly Cloudy,340,2013-01-28 23:53:00
4:53 PM,19.0,9.0,65,30.21,10.0,WNW,4.6,-,N/A,,Mostly Cloudy,300,2013-01-29 00:53:00
5:53 PM,19.9,10.9,68,30.22,10.0,West,6.9,-,N/A,,Overcast,270,2013-01-29 01:53:00
6:53 PM,19.0,10.9,71,30.24,10.0,West,5.8,-,N/A,,Overcast,260,2013-01-29 02:53:00
7:53 PM,19.9,12.0,71,30.20,10.0,West,6.9,-,N/A,,Overcast,270,2013-01-29 03:53:00
8:53 PM,19.9,12.0,71,30.15,10.0,West,6.9,-,N/A,,Overcast,260,2013-01-29 04:53:00
9:42 PM,19.4,12.2,74,29.97,9.0,WNW,6.9,-,N/A,,Overcast,290,2013-01-29 05:42:00
9:53 PM,19.0,12.9,77,30.14,9.0,West,8.1,-,N/A,,Overcast,280,2013-01-29 05:53:00
10:53 PM,19.0,12.9,77,30.09,4.0,Calm,Calm,-,0.00,Snow,Light Snow,0,2013-01-29 06:53:00
11:53 PM,17.1,15.1,92,30.06,4.0,South,4.6,-,0.00,Snow,Light Snow,170,2013-01-29 07:53:00